Regional Weather Roundup
Issued by NWS

Home | Current Version | Previous Version | Graphics & Text | Print | Product List | Glossary On
Versions: 1 2 3 4 5 6 7 8 9 10 11 12 13 14 15 16 17 18 19 20 21 22 23 24 25 26 27 28 29 30 31 32 33 34 35 36 37 38 39 40 41 42 43 44 45 46 47 48 49 50
000
ASUS43 KLMK 242210
RWRKY
KENTUCKY REGIONAL WEATHER ROUNDUP
NATIONAL WEATHER SERVICE LOUISVILLE KY
600 PM EDT SAT SEP 24 2016

NOTE "FAIR" INDICATES FEW OR NO CLOUDS BELOW 12,000 FEET
WITH NO SIGNIFICANT WEATHER AND/OR OBSTRUCTIONS TO VISIBILITY.

KYZ001>023-026-027-061>063-070>075-242300-
WESTERN AND SOUTH CENTRAL KENTUCKY

CITY           SKY/WX    TMP DP  RH WIND       PRES   REMARKS
PADUCAH        PTSUNNY   90  66  45 NE8       30.02F HX  92
HENDERSON      SUNNY     90  63  40 N5        30.03F HX  90
OWENSBORO      NOT AVBL
HOPKINSVILLE   MOSUNNY   87  68  52 NE5       30.05S HX  90
BOWLING GREEN  SUNNY     86  64  47 NE5       30.07S
GLASGOW        SUNNY     86  63  45 CALM      30.08S
$$

KYZ024-025-028>034-038-045-046-053-242300-
NORTH CENTRAL KENTUCKY

CITY           SKY/WX    TMP DP  RH WIND       PRES   REMARKS
LOUISVILLE/SDF MOSUNNY   90  59  35 CALM      30.05F
LOUISVILLE/LOU CLOUDY    90  60  36 VRB7      30.07S
FORT KNOX      SUNNY     87  62  43 N5        30.06F
$$

KYZ035>037-039>044-047>052-055>060-089>105-242300-
NORTHEAST KENTUCKY

CITY           SKY/WX    TMP DP  RH WIND       PRES   REMARKS
LEXINGTON      SUNNY     90  61  37 N8        30.08F HX  90
COVINGTON      SUNNY     82  67  60 NE8       30.11S
FRANKFORT      SUNNY     88  63  43 N6        30.07F
$$

KYZ054-064>069-076>088-106>120-242300-
SOUTHEAST KENTUCKY

CITY           SKY/WX    TMP DP  RH WIND       PRES   REMARKS
JACKSON        SUNNY     86  63  45 VRB3      30.10F
LONDON         MOSUNNY   85  62  46 NE3       30.10S
SOMERSET       SUNNY     84  63  48 NE5       30.10S
MIDDLESBORO    SUNNY     86  64  47 N8        30.10R
MONTICELLO     CLEAR     87  64  46 N14       30.10S
$$





USA.gov is the U.S. government's official web portal to all federal, state and local government web resources and services.